sat.trackr.live / text

‹ back to catalog

STARLINK-30347

NORAD 57699 · 2023-129B

PAYLOAD ACTIVE UNKNOWN

§ Identity

Operator
Country
US
Launch date
2023-08-27
Launch site
AFETR
Launch vehicle
Mass (kg)
RCS (m²)

Purposes: comms

External: N2YO · Heavens-Above · Gunter

§ Orbital elements

Epoch: 2026-05-25T01:20:39.275232Z

Period
94.27 min
Inclination
43.0038°
Eccentricity
0.0001082
Mean motion
15.27565002 rev/d
Perigee alt
482.4 km
Apogee alt
483.8 km
Semi-major
6,861.2 km
B*
-1.0672e-4
RAAN
35.3923°
Arg perigee
267.4279°
Mean anomaly
92.6449°
Rev number
15,249

§ Raw data

STARLINK-303471 57699U 23129B   26145.05601013 -.00003196  00000+0 -10672-3 0  99962 57699  43.0038  35.3923 0001082 267.4279  92.6449 15.27565002152497

JSON: /api/v1/satellites/57699 · /tle

For live sub-satellite position, see the globe view (requires WebGL).

§ Visibility from observer

Set your observer location to see the next 7 days of passes ≥ 10°. The values pass through the URL so the page stays shareable.

No JS? Fill the form by hand. The geolocation button needs JavaScript.